Time,TemperatureF,DewpointF,PressureIn,WindDirection,WindDirectionDegrees,WindSpeedMPH,WindSpeedGustMPH,Humidity,HourlyPrecipIn,Conditions,Clouds,dailyrainin,SoftwareType,DateUTC
2013-07-28 00:09:00,61.8,58.0,29.97,NE,35,1.0,2.0,87,0.00,,,0.00,weatherlink.com 1.10,2013-07-28 04:09:00,
2013-07-28 00:24:00,61.8,58.0,29.97,NE,35,0.0,1.0,88,0.00,,,0.00,weatherlink.com 1.10,2013-07-28 04:24:00,
2013-07-28 00:39:00,61.8,58.0,29.97,NE,35,1.0,1.0,87,0.00,,,0.00,weatherlink.com 1.10,2013-07-28 04:39:00,
2013-07-28 00:54:00,61.4,59.0,29.97,NE,34,1.0,1.0,90,0.00,,,0.00,weatherlink.com 1.10,2013-07-28 04:54:00,
2013-07-28 01:09:00,61.0,58.0,29.97,NE,34,0.0,1.0,88,0.00,,,0.00,weatherlink.com 1.10,2013-07-28 05:09:00,
2013-07-28 01:24:00,60.6,58.0,29.97,NE,34,0.0,1.0,90,0.00,,,0.00,weatherlink.com 1.10,2013-07-28 05:24:00,
2013-07-28 01:39:00,60.5,58.0,29.98,NE,34,1.0,1.0,91,0.00,,,0.00,weatherlink.com 1.10,2013-07-28 05:39:00,
2013-07-28 01:54:00,60.6,58.0,29.97,NE,35,1.0,1.0,92,0.00,,,0.00,weatherlink.com 1.10,2013-07-28 05:54:00,
2013-07-28 02:09:00,60.5,58.0,29.97,NE,35,1.0,1.0,92,0.00,,,0.00,weatherlink.com 1.10,2013-07-28 06:09:00,
2013-07-28 02:24:00,60.5,58.0,29.98,NE,35,1.0,2.0,92,0.00,,,0.00,weatherlink.com 1.10,2013-07-28 06:24:00,
2013-07-28 02:39:00,60.2,58.0,29.97,NE,35,1.0,2.0,93,0.00,,,0.00,weatherlink.com 1.10,2013-07-28 06:39:00,
2013-07-28 02:54:00,60.0,58.0,29.98,NE,35,1.0,1.0,94,0.00,,,0.00,weatherlink.com 1.10,2013-07-28 06:54:00,
2013-07-28 03:09:00,60.0,59.0,29.98,NE,35,1.0,1.0,95,0.00,,,0.00,weatherlink.com 1.10,2013-07-28 07:09:00,
2013-07-28 03:24:00,59.8,58.0,29.98,NE,34,1.0,1.0,95,0.00,,,0.00,weatherlink.com 1.10,2013-07-28 07:24:00,
2013-07-28 03:39:00,59.6,58.0,29.98,NE,35,0.0,1.0,95,0.00,,,0.00,weatherlink.com 1.10,2013-07-28 07:39:00,
2013-07-28 03:54:00,59.4,58.0,29.98,NE,34,1.0,1.0,96,0.00,,,0.00,weatherlink.com 1.10,2013-07-28 07:54:00,
2013-07-28 04:09:00,59.4,59.0,29.97,NE,35,1.0,1.0,97,0.00,,,0.00,weatherlink.com 1.10,2013-07-28 08:09:00,
2013-07-28 04:24:00,59.6,59.0,29.96,NE,35,1.0,1.0,96,0.00,,,0.00,weatherlink.com 1.10,2013-07-28 08:24:00,
2013-07-28 04:39:00,59.6,59.0,29.96,NE,35,1.0,2.0,96,0.00,,,0.00,weatherlink.com 1.10,2013-07-28 08:39:00,
2013-07-28 04:54:00,60.0,59.0,29.97,NE,34,1.0,1.0,96,0.00,,,0.00,weatherlink.com 1.10,2013-07-28 08:54:00,
2013-07-28 05:09:00,59.9,59.0,29.97,NE,35,1.0,1.0,96,0.00,,,0.00,weatherlink.com 1.10,2013-07-28 09:09:00,
2013-07-28 05:24:00,59.7,59.0,29.96,NE,56,1.0,2.0,96,0.00,,,0.00,weatherlink.com 1.10,2013-07-28 09:24:00,
2013-07-28 05:39:00,59.9,59.0,29.97,NE,56,0.0,2.0,96,0.00,,,0.00,weatherlink.com 1.10,2013-07-28 09:39:00,
2013-07-28 05:54:00,60.2,59.0,29.97,NE,55,1.0,2.0,97,0.00,,,0.00,weatherlink.com 1.10,2013-07-28 09:54:00,
2013-07-28 06:09:00,60.9,60.0,29.96,NE,56,1.0,2.0,97,0.00,,,0.00,weatherlink.com 1.10,2013-07-28 10:09:00,
2013-07-28 06:24:00,60.9,60.0,29.97,ENE,76,0.0,0.0,95,0.00,,,0.00,weatherlink.com 1.10,2013-07-28 10:24:00,
2013-07-28 06:39:00,61.4,60.0,29.97,ENE,76,1.0,1.0,96,0.00,,,0.00,weatherlink.com 1.10,2013-07-28 10:39:00,
2013-07-28 06:54:00,64.3,63.0,29.97,ENE,76,0.0,1.0,94,0.00,,,0.00,weatherlink.com 1.10,2013-07-28 10:54:00,
2013-07-28 07:09:00,67.0,62.0,29.97,ENE,76,0.0,1.0,85,0.00,,,0.00,weatherlink.com 1.10,2013-07-28 11:09:00,
2013-07-28 07:24:00,67.4,63.0,29.97,ENE,77,0.0,1.0,85,0.00,,,0.00,weatherlink.com 1.10,2013-07-28 11:24:00,
2013-07-28 07:40:00,67.2,62.0,29.98,SE,145,0.0,1.0,82,0.00,,,0.00,weatherlink.com 1.10,2013-07-28 11:40:00,
2013-07-28 07:55:00,68.0,62.0,29.97,SSE,162,0.0,1.0,82,0.00,,,0.00,weatherlink.com 1.10,2013-07-28 11:55:00,
2013-07-28 08:10:00,67.8,62.0,29.97,SW,215,0.0,1.0,81,0.00,,,0.00,weatherlink.com 1.10,2013-07-28 12:10:00,
2013-07-28 08:25:00,67.2,63.0,29.97,SW,215,0.0,1.0,86,0.00,,,0.00,weatherlink.com 1.10,2013-07-28 12:25:00,
2013-07-28 08:40:00,66.8,62.0,29.98,SW,215,1.0,1.0,85,0.00,,,0.00,weatherlink.com 1.10,2013-07-28 12:40:00,
2013-07-28 08:55:00,67.6,62.0,29.98,WSW,242,0.0,1.0,83,0.00,,,0.00,weatherlink.com 1.10,2013-07-28 12:55:00,
2013-07-28 09:10:00,69.7,63.0,29.97,SSE,164,1.0,2.0,79,0.00,,,0.00,weatherlink.com 1.10,2013-07-28 13:10:00,
2013-07-28 09:26:00,71.9,62.0,29.96,South,187,2.0,4.0,70,0.00,,,0.00,weatherlink.com 1.10,2013-07-28 13:26:00,
2013-07-28 09:41:00,73.0,60.0,29.96,SE,134,0.0,3.0,63,0.00,,,0.00,weatherlink.com 1.10,2013-07-28 13:41:00,
2013-07-28 09:55:00,74.0,60.0,29.96,SSW,209,0.0,5.0,61,0.00,,,0.00,weatherlink.com 1.10,2013-07-28 13:55:00,
2013-07-28 10:10:00,72.7,62.0,29.96,SSE,157,1.0,4.0,69,0.00,,,0.00,weatherlink.com 1.10,2013-07-28 14:10:00,
2013-07-28 10:25:00,72.9,62.0,29.97,ESE,122,1.0,4.0,69,0.00,,,0.00,weatherlink.com 1.10,2013-07-28 14:25:00,
2013-07-28 10:40:00,73.1,62.0,29.96,SW,232,0.0,3.0,69,0.00,,,0.00,weatherlink.com 1.10,2013-07-28 14:40:00,
2013-07-28 10:55:00,73.8,61.0,29.96,SE,126,0.0,2.0,64,0.00,,,0.00,weatherlink.com 1.10,2013-07-28 14:55:00,
2013-07-28 11:10:00,73.3,61.0,29.96,SW,226,0.0,2.0,66,0.00,,,0.00,weatherlink.com 1.10,2013-07-28 15:10:00,
2013-07-28 11:25:00,74.8,62.0,29.96,South,191,3.0,3.0,65,0.00,,,0.00,weatherlink.com 1.10,2013-07-28 15:25:00,
2013-07-28 11:40:00,76.9,62.0,29.95,SW,219,2.0,4.0,60,0.00,,,0.00,weatherlink.com 1.10,2013-07-28 15:40:00,
2013-07-28 11:55:00,77.2,59.0,29.95,SSE,155,3.0,4.0,54,0.00,,,0.00,weatherlink.com 1.10,2013-07-28 15:55:00,
2013-07-28 12:10:00,79.2,62.0,29.95,West,261,1.0,3.0,55,0.00,,,0.00,weatherlink.com 1.10,2013-07-28 16:10:00,
2013-07-28 12:25:00,80.0,62.0,29.94,WNW,286,0.0,4.0,54,0.00,,,0.00,weatherlink.com 1.10,2013-07-28 16:25:00,
2013-07-28 12:40:00,79.6,60.0,29.94,SW,223,2.0,2.0,52,0.00,,,0.00,weatherlink.com 1.10,2013-07-28 16:40:00,
2013-07-28 12:55:00,78.6,62.0,29.93,SSE,158,1.0,5.0,57,0.00,,,0.00,weatherlink.com 1.10,2013-07-28 16:55:00,
2013-07-28 13:10:00,78.4,62.0,29.94,SW,214,1.0,5.0,57,0.00,,,0.00,weatherlink.com 1.10,2013-07-28 17:10:00,
2013-07-28 13:25:00,77.7,63.0,29.93,SSE,151,0.0,4.0,60,0.00,,,0.00,weatherlink.com 1.10,2013-07-28 17:25:00,
2013-07-28 13:40:00,77.9,62.0,29.93,SSW,199,2.0,3.0,58,0.00,,,0.00,weatherlink.com 1.10,2013-07-28 17:40:00,
2013-07-28 13:55:00,77.8,65.0,29.93,SW,223,0.0,2.0,64,0.00,,,0.00,weatherlink.com 1.10,2013-07-28 17:55:00,
2013-07-28 14:10:00,77.9,65.0,29.93,SE,142,2.0,6.0,64,0.00,,,0.00,weatherlink.com 1.10,2013-07-28 18:10:00,
2013-07-28 14:25:00,77.5,65.0,29.93,SSW,206,0.0,4.0,65,0.00,,,0.00,weatherlink.com 1.10,2013-07-28 18:25:00,
2013-07-28 14:40:00,77.8,63.0,29.93,SSW,213,0.0,2.0,61,0.00,,,0.00,weatherlink.com 1.10,2013-07-28 18:40:00,
2013-07-28 14:55:00,77.8,65.0,29.93,ESE,123,0.0,1.0,64,0.00,,,0.00,weatherlink.com 1.10,2013-07-28 18:55:00,
2013-07-28 15:10:00,77.7,64.0,29.93,South,188,0.0,2.0,63,0.00,,,0.00,weatherlink.com 1.10,2013-07-28 19:10:00,
2013-07-28 15:25:00,77.9,66.0,29.93,SW,215,2.0,7.0,66,0.00,,,0.00,weatherlink.com 1.10,2013-07-28 19:25:00,
2013-07-28 15:40:00,77.7,66.0,29.93,WSW,246,0.0,6.0,68,0.00,,,0.00,weatherlink.com 1.10,2013-07-28 19:40:00,
2013-07-28 15:55:00,76.8,67.0,29.92,SSW,212,1.0,4.0,71,0.00,,,0.00,weatherlink.com 1.10,2013-07-28 19:55:00,
2013-07-28 16:10:00,76.0,67.0,29.92,SE,141,0.0,4.0,74,0.00,,,0.00,weatherlink.com 1.10,2013-07-28 20:10:00,
2013-07-28 16:25:00,75.9,67.0,29.92,SE,135,0.0,3.0,73,0.00,,,0.00,weatherlink.com 1.10,2013-07-28 20:25:00,
2013-07-28 16:40:00,75.4,67.0,29.92,NNW,348,0.0,1.0,76,0.00,,,0.00,weatherlink.com 1.10,2013-07-28 20:40:00,
2013-07-28 16:55:00,74.3,67.0,29.92,SSW,196,0.0,3.0,79,0.00,,,0.00,weatherlink.com 1.10,2013-07-28 20:55:00,
2013-07-28 17:10:00,73.8,66.0,29.92,WSW,237,0.0,3.0,77,0.00,,,0.00,weatherlink.com 1.10,2013-07-28 21:10:00,
2013-07-28 17:25:00,73.3,66.0,29.92,SW,219,0.0,3.0,79,0.00,,,0.00,weatherlink.com 1.10,2013-07-28 21:25:00,
2013-07-28 17:40:00,73.0,67.0,29.92,SSW,192,0.0,2.0,81,0.00,,,0.00,weatherlink.com 1.10,2013-07-28 21:40:00,
2013-07-28 17:55:00,72.4,66.0,29.92,South,188,0.0,5.0,79,0.00,,,0.00,weatherlink.com 1.10,2013-07-28 21:55:00,
2013-07-28 18:10:00,72.0,67.0,29.91,SW,221,0.0,5.0,83,0.00,,,0.00,weatherlink.com 1.10,2013-07-28 22:10:00,
2013-07-28 18:25:00,71.4,65.0,29.92,SW,218,1.0,3.0,81,0.00,,,0.00,weatherlink.com 1.10,2013-07-28 22:25:00,
2013-07-28 18:40:00,70.8,66.0,29.92,WSW,256,0.0,3.0,84,0.00,,,0.00,weatherlink.com 1.10,2013-07-28 22:40:00,
2013-07-28 18:55:00,70.1,65.0,29.93,WSW,244,1.0,4.0,83,0.00,,,0.00,weatherlink.com 1.10,2013-07-28 22:55:00,
2013-07-28 19:10:00,69.9,64.0,29.93,WSW,238,2.0,6.0,82,0.00,,,0.00,weatherlink.com 1.10,2013-07-28 23:10:00,
2013-07-28 19:25:00,69.6,64.0,29.93,SW,223,0.0,3.0,83,0.00,,,0.00,weatherlink.com 1.10,2013-07-28 23:25:00,
2013-07-28 19:40:00,69.2,64.0,29.94,SSW,203,5.0,7.0,84,0.00,,,0.00,weatherlink.com 1.10,2013-07-28 23:40:00,
2013-07-28 19:55:00,68.9,64.0,29.94,West,264,1.0,3.0,85,0.00,,,0.00,weatherlink.com 1.10,2013-07-28 23:55:00,
2013-07-28 20:11:00,68.6,64.0,29.94,WSW,238,0.0,4.0,85,0.00,,,0.00,weatherlink.com 1.10,2013-07-29 00:11:00,
2013-07-28 20:26:00,67.9,64.0,29.94,SSW,193,0.0,1.0,87,0.00,,,0.00,weatherlink.com 1.10,2013-07-29 00:26:00,
2013-07-28 20:41:00,67.6,64.0,29.94,WSW,238,0.0,2.0,88,0.00,,,0.00,weatherlink.com 1.10,2013-07-29 00:41:00,
2013-07-28 20:56:00,68.2,64.0,29.94,South,171,2.0,8.0,86,0.00,,,0.00,weatherlink.com 1.10,2013-07-29 00:56:00,
2013-07-28 21:11:00,67.8,64.0,29.94,NW,315,0.0,3.0,88,0.00,,,0.00,weatherlink.com 1.10,2013-07-29 01:11:00,
2013-07-28 21:26:00,67.1,64.0,29.94,SSW,203,0.0,1.0,90,0.00,,,0.00,weatherlink.com 1.10,2013-07-29 01:26:00,
2013-07-28 21:56:00,66.8,64.0,29.94,ESE,115,0.0,4.0,91,0.00,,,0.00,weatherlink.com 1.10,2013-07-29 01:56:00,
2013-07-28 22:11:00,66.8,64.0,29.94,SSW,209,0.0,1.0,91,0.00,,,0.00,weatherlink.com 1.10,2013-07-29 02:11:00,
2013-07-28 22:26:00,66.4,64.0,29.94,East,94,1.0,5.0,92,0.00,,,0.00,weatherlink.com 1.10,2013-07-29 02:26:00,
2013-07-28 22:56:00,66.1,64.0,29.93,South,190,0.0,2.0,93,0.00,,,0.00,weatherlink.com 1.10,2013-07-29 02:56:00,
2013-07-28 23:11:00,66.4,64.0,29.94,South,190,0.0,3.0,92,0.00,,,0.00,weatherlink.com 1.10,2013-07-29 03:11:00,
2013-07-28 23:26:00,66.5,64.0,29.94,ESE,115,0.0,2.0,91,0.00,,,0.00,weatherlink.com 1.10,2013-07-29 03:26:00,
2013-07-28 23:41:00,67.2,64.0,29.94,SE,125,0.0,6.0,89,0.00,,,0.00,weatherlink.com 1.10,2013-07-29 03:41:00,
2013-07-28 23:56:00,67.4,64.0,29.94,West,265,0.0,4.0,89,0.00,,,0.00,weatherlink.com 1.10,2013-07-29 03:56:00,